Showing default

KINEIS-4C, 63301

Orbit data source: Space-Track

KINEIS-4C, 63301 is a French payload satellite in SSO that was launched on Tue, 18 Mar 2025 UTC via an ELECTRON launch vehicle from the Rocket Lab Launch Complex (RLLC). Payload-class satellites include a variety of spacecraft equipped with specific instruments for various scientific and technological missions. These include communications satellites like Starlink; space stations such as the ISS; scientific satellites like the Hubble; Earth observation satellites from companies like Planet Labs, Umbra, and HawkEye 360; GPS; miniature CubeSats for education and research; and military/defense satellites.

Loading next visibility...
Identifier
63301, 2025-056B
Orbit
SSO
Last TLE update
7 hours ago
Origin
Manufacturer
KINEIS
Mission
Operational Commercial Communications
Bus & Motor
CUBESAT 16U, Unknown motor
Mass
28 kg wet, 28 kg dry
Launch date (UTC)
2025-03-18 (4 months ago)
Launch vehicle
ELECTRON
Launch site
Rocket Lab Launch Complex (RLLC)
Object type
Payload
Rocket body
Debris
Shape & HBR
Box + 2 Pan + 1 Ant, 1.6 m
Radar Cross Section
0.229 m², Medium (>0.1 m² and < 1m²)

Expand to show TLE details & history

TLE from 7 hours ago
0 KINEIS-4C
1 63301U 25056B   25192.16926491  .00001104  00000-0  18258-3 0  9991
2 63301  97.9850 317.5778 0001726  49.6097 310.5261 14.72278052 16959
Epoch: 2025-07-11T04:03Z
TLE epoch observation values (Epoch: 2025-07-11T04:03:44.488Z)
Latitude
Longitude
-32.68262°
Altitude
656.025 km
Speed
7.53 km/s
True Right ascension
21h 10m 18s
True Declination
0° 00' 00"
Sunlit
Object was in full shadow at epoch
Visualization orbit readout
Latitude
81.66874°
Longitude
-140.089°
Altitude
666.406 km
Speed
7.531 km/s
Apparent Right ascension
11h 45m 04s
Apparent Declination
26° 43' 38"
Sunlit
Object is in daylight
Visualization observer readout
Local Sidereal Time
23:18:17
Azimuth
353.502° N
Elevation
-23.065°
Doppler factor
1
Orbital elements
Apogee altitude
652.073 km
Perigee altitude
649.647 km
Semi-major axis
7,028.997 km
Eccentricity
0.00017
Inclination
97.985°
RAAN
317.5778°
Arg. of periapsis
49.6097°
True anomaly
Unknown
Mean anomaly
310.5261°
Eccentric anomaly
Unknown
Mean motion
3.68301 °/min
Orbital period
97.75 mins
BSTAR
0.00018258
Loading maneuver chart data...
Loading SW <> Apogee altitude chart data...
Loading historical data...
Loading historical data...
Loading historical data...
Loading historical data...
Loading historical data...
Loading historical data...
Loading historical data...

KINEIS-4C Visibility forecast

Observer location: undefined°, undefined°

Span
Click to sort rows by Start time (UTC) header in descending order
Start Az.
Max El. time (UTC)
Max El. Az.
Max El.
End time (UTC)
End Az.
8 mins2025-07-11 20:56:19.373Z22.705° NE2025-07-11 21:00:19.373Z88.575° E38.829°2025-07-11 21:04:19.373Z176.076° S
6 mins2025-07-12 07:56:19.373Z132.765° SE2025-07-12 07:58:19.373Z91.217° ESE34.122°2025-07-12 08:02:19.373Z4.051° NNE
4 mins2025-07-12 09:34:19.373Z244.931° WSW2025-07-12 09:35:19.373Z260.097° W15.391°2025-07-12 09:38:19.373Z303.717° NW
|